Starlink 33718

operational
NORAD ID: 63476 Int'l Des: 2025-070 Owner: SPXS Country: US Constellation: starlink
LEOCIRCULAR

About Starlink 33718

Description loading...

Live Position

Loading 3D Globe...

Upcoming Passes

Altitude History

Altitude vs Time

uPlot chart will show altitude changes over time

Two-Line Element Set

1 63476U 25070S 26102.25758425 .00008294 00000-0 31058-3 0 9992
2 63476 43.0004 69.9228 0001429 269.5116 90.5571 15.27579361 58119
Epoch: Apr 12, 2026 • Age: 10 hours

Current Status

Altitude 485.7 km
Velocity 7.63 km/s
Sub-Earth Point 36.88°N, 41.95°E
Launch Date Apr 6, 2025
Age 1 years
Type internet

Technical Details

Classification Payload
Mass 575.00 kg
Dry Mass 530.00 kg
Total Mass 575.00 kg
Length 0.30 m
Diameter 4.10 m
Span 29.00 m
Shape Box + pan
Manufacturer SPXS
Bus Type Starlink V2MO
Phase Status In Orbit
Owner/State SPXS/US

Large Constellations

Loading constellations...